Regional Weather Roundup
Issued by NWS

Home | Current Version | Previous Version | Graphics & Text | Print | Product List | Glossary On
Versions: 1 2 3 4 5 6 7 8 9 10 11 12 13 14 15 16 17 18 19 20 21 22 23 24 25 26 27 28 29 30 31 32 33 34 35 36 37 38 39 40 41 42 43 44 45 46 47 48 49 50
330
ASUS43 KIND 060009
RWRIN

WEATHER ROUNDUP FOR INDIANA
NATIONAL WEATHER SERVICE INDIANAPOLIS IN
700 PM EST MON DEC 05 2016

NOTE: "FAIR" INDICATES FEW OR NO CLOUDS BELOW 12,000 FEET WITH NO
SIGNIFICANT WEATHER AND/OR OBSTRUCTIONS TO VISIBILITY.

* - STATION DOES NOT REPORT WEATHER SUCH AS PRECIPITATION OR FOG.

+ - STATION NOT QUALITY CONTROLLED BY THE NATIONAL WEATHER SERVICE.
    USE DATA WITH CAUTION...ESPECIALLY DEWPOINT AND RELATIVE
    HUMIDITY OBSERVATIONS.

INZ001>003-010>013-019-020-060100-
NORTHWEST INDIANA

CITY           SKY/WX    TMP DP  RH WIND       PRES   REMARKS
GARY /AIRPORT/ CLOUDY    34  32  93 SE6       30.01S WCI  29
KNOX *+        CLOUDY    32  21  64 E9        30.01S WCI  24
LA PORTE +     CLOUDY   N/A N/A N/A SE7       30.01S
MICHIGAN CITY+ CLOUDY    32  32 100 SE8       30.02R WCI  25
MONTICELLO +   PTCLDY    34  30  85 E3        29.99S
6HR MIN TEMP:  34; 6HR MAX TEMP:  38;

RENSSELAER +   PTCLDY    32  32 100 E8        29.99S WCI  25
VALPARAISO     CLOUDY    33  30  88 SE10      30.01R WCI  25
6HR MIN TEMP:  33; 6HR MAX TEMP:  34;


$$

LMZ046-743>745-060100-
SOUTHERN LAKE MICHIGAN

STATION/POSITION TIME  TEMP    WIND        PRES    WAVE
                       AIR SEA DIR/SP/G            HT
                 (UTC) (F)     (DEG/KT/KT) (MB)    (FT)
BURNS HARBOR     2340   33     150/  6/  9 1016.6F

$$

INZ004-005-014>016-021>024-060100-
NORTH CENTRAL INDIANA

CITY           SKY/WX    TMP DP  RH WIND       PRES   REMARKS
ELKHART        CLOUDY    32  30  93 SE7       30.02F WCI  26
GOSHEN         CLOUDY    32  28  85 SE8       30.03S WCI  25
6HR MIN TEMP:  32; 6HR MAX TEMP:  34;

LOGANSPORT +   CLOUDY    32  30  93 E6        30.01S WCI  26
PERU/GRISSOM   CLOUDY    34  33  96 E7        29.99S WCI  28
6HR MIN TEMP:  34; 6HR MAX TEMP:  38; 6HR PCP:  0.07;

ROCHESTER +    CLOUDY    34  34 100 E5        30.01F WCI  30
SOUTH BEND     CLOUDY    31  29  92 SE9       30.02F WCI  23
6HR MIN TEMP:  31; 6HR MAX TEMP:  32;

WARSAW +       CLOUDY    32  28  86 E3        30.02S

$$

INZ006>009-017-018-025>027-060100-
NORTHEAST INDIANA

CITY           SKY/WX    TMP DP  RH WIND       PRES   REMARKS
ANGOLA *+      CLOUDY    30  19  64 SE7       30.02F WCI  23
AUBURN +       CLOUDY    32  28  86 CALM      30.04F
FORT WAYNE     PTCLDY    30  27  88 E7        30.03F WCI  23
6HR MIN TEMP:  30; 6HR MAX TEMP:  36;

HUNTINGTON +   CLOUDY    32  31  96 E5        30.02S WCI  27
6HR MIN TEMP:  32; 6HR MAX TEMP:  36;

KENDALLVILLE + CLOUDY    32  30  92 SE7       30.03F WCI  25

$$

INZ028-029-035-036-043>045-051>053-060100-
WEST CENTRAL INDIANA

CITY           SKY/WX    TMP DP  RH WIND       PRES   REMARKS
CRAWFORDSVL +  CLEAR     34  33  95 E6        29.97F WCI  29
6HR MIN TEMP:  34; 6HR MAX TEMP:  41;

GREENCASTLE +  CLEAR     36  34  93 E7        29.97F
LAFAYETTE      CLOUDY    36  33  89 E9        29.99S
6HR MIN TEMP:  34; 6HR MAX TEMP:  40;

TERRE HAUTE    CLEAR     34  29  82 E5        29.95F WCI  30
6HR MIN TEMP:  34; 6HR MAX TEMP:  44;


$$

INZ030>032-037>040-046>048-054>057-064-065-060100-
CENTRAL INDIANA

CITY           SKY/WX    TMP DP  RH WIND       PRES   REMARKS
CP ATTERBURY + CLEAR     34  32  93 E7        29.98F WCI  28
COLUMBUS       PTCLDY    34  34 100 E7        29.99F WCI  28
FRANKFORT +    MOCLDY    38  35  89 SE10      30.00F
6HR MIN TEMP:  37; 6HR MAX TEMP:  44;

GREENWOOD *+   CLEAR     37  34  89 E5        29.99F
6HR MIN TEMP:  37; 6HR MAX TEMP:  42;

INDIANAPOLIS   PTCLDY    37  33  85 E8        29.98F
6HR MIN TEMP:  36; 6HR MAX TEMP:  43;

-EAGLE CREEK   CLEAR     38  32  79 E5        29.98F
6HR MIN TEMP:  37; 6HR MAX TEMP:  44;

MARION +       LGT SNOW  34  31  91 E6        30.02S WCI  29
MT COMFORT *+  CLEAR     36  32  87 E7        30.00F
SHELBYVILLE    CLEAR     35  31  85 E7        29.99F WCI  29
6HR MIN TEMP:  35; 6HR MAX TEMP:  43;

ZIONSVILLE +   CLEAR     34  32  91 E6        29.99F WCI  29
6HR MIN TEMP:  34; 6HR MAX TEMP:  43;


$$

INZ033-034-041-042-049-050-058-059-060100-
EAST CENTRAL INDIANA

CITY           SKY/WX    TMP DP  RH WIND       PRES   REMARKS
MUNCIE         CLEAR     36  32  85 SE8       30.01F
6HR MIN TEMP:  36; 6HR MAX TEMP:  43;


$$

INZ060-061-067>069-081>083-085>088-060100-
SOUTHWEST INDIANA

CITY           SKY/WX    TMP DP  RH WIND       PRES   REMARKS
EVANSVILLE     CLOUDY    41  35  79 E5        29.93F
6HR MIN TEMP:  41; 6HR MAX TEMP:  43;

HUNTINGBURG *+ CLOUDY    41  34  76 E7        29.94F
6HR MIN TEMP:  41; 6HR MAX TEMP:  42;

WASHINGTON +   PTCLDY    37  35  91 E8        29.94F
6HR MIN TEMP:  37; 6HR MAX TEMP:  43;


$$

INZ062-063-066-070>080-084-089>092-060100-
SOUTH CENTRAL AND SOUTHEAST INDIANA

CITY           SKY/WX    TMP DP  RH WIND       PRES   REMARKS
BLOOMINGTON    CLEAR     37  31  78 E6        29.95F
6HR MIN TEMP:  36; 6HR MAX TEMP:  43;

MADISON *+     CLOUDY    41  34  75 E9        29.98F
NORTH VERNON + CLOUDY    37  37 100 NE6       29.99F
SEYMOUR +      CLOUDY    36  32  87 E5        29.98F

$$





USA.gov is the U.S. government's official web portal to all federal, state and local government web resources and services.